Regional Weather Roundup
Issued by NWS

Home | Current Version | Previous Version | Text Only | Print | Product List | Glossary Off
Versions: 1 2 3 4 5 6 7 8 9 10 11 12 13 14 15 16 17 18 19 20 21 22 23 24 25 26 27 28 29 30 31 32 33 34 35 36 37 38 39 40 41 42 43 44 45 46 47 48 49 50

000
ASUS43 KOAX 172210
RWRNE

WEATHER ROUNDUP FOR NEBRASKA
NATIONAL WEATHER SERVICE OMAHA NE
500 PM CDT THU AUG 17 2017

NOTES: SATELLITE DATA IS BEING USED TO AUGMENT CLOUD COVER ABOVE
       12000 FEET.
       "FAIR" INDICATES FEW OR NO CLOUDS BELOW 12,000 FEET WITH NO
       SIGNIFICANT WEATHER AND/OR OBSTRUCTIONS TO VISIBILITY.


NEZ001>004-019>022-054>056-172300-
NEBRASKA PANHANDLE

CITY           SKY/WX    TMP DP  RH WIND       PRES   REMARKS
SCOTTSBLUFF    SUNNY     89  43  20 NW8       29.97F
ALLIANCE       SUNNY     87  46  24 MISG      29.96F
CHADRON        MOSUNNY   90  41  18 MISG      29.89F
GORDON         FAIR      89  43  19 SW13G18   29.93S
KIMBALL        CLOUDY    82  47  28 S10       30.07F
SIDNEY         CLOUDY    84  42  22 SW20      30.04F
$$

NEZ057>060-069>072-079>082-172300-
SOUTHWEST NEBRASKA

CITY           SKY/WX    TMP DP  RH WIND       PRES   REMARKS
NORTH PLATTE   MOSUNNY   87  60  40 S14       29.96F
IMPERIAL       SUNNY     89  53  29 SW8       29.98F
LEXINGTON      SUNNY     85  56  36 S8        29.98F
MCCOOK         SUNNY     89  59  36 S14       29.98F
OGALLALA       SUNNY     85  58  40 S7        29.97F
$$

NEZ005>010-023>029-035>040-094-172300-
NORTH CENTRAL NEBRASKA

CITY           SKY/WX    TMP DP  RH WIND       PRES   REMARKS
VALENTINE      SUNNY     92  48  22 S15G25    29.89F
AINSWORTH      SUNNY     86  55  34 SW12      29.92F
BROKEN BOW     SUNNY     87  51  28 S14       29.96F
O`NEILL        SUNNY     84  57  38 S7        29.93F
ORD            SUNNY     85  53  33 S7        29.93F
THEDFORD       SUNNY     89  53  29 S15G23    29.95F
$$

NEZ041-046>049-061>064-073>077-083>087-172300-
SOUTH CENTRAL NEBRASKA

CITY           SKY/WX    TMP DP  RH WIND       PRES   REMARKS
GRAND ISLAND   SUNNY     86  61  42 W9        29.97F
AURORA         SUNNY     83  62  48 W6        29.97S
HASTINGS       SUNNY     83  60  45 W6        29.99F
HEBRON         SUNNY     86  58  38 W3        29.97S
HOLDREGE       SUNNY     84  53  35 SW7       29.99F
KEARNEY        SUNNY     84  60  44 SW7       29.98F
YORK           SUNNY     81  64  57 W7        29.96F
$$

NEZ011>018-030>034-042>045-172300-
NORTHEAST NEBRASKA

CITY           SKY/WX    TMP DP  RH WIND       PRES   REMARKS
NORFOLK        SUNNY     82  57  42 W6        29.92S
ALBION         SUNNY     85  64  48 SW6       29.94F
BLAIR          LGT RAIN  80  60  50 W7        29.93S
COLUMBUS       SUNNY     82  62  50 W7        29.94F
FREMONT        SUNNY     81  61  49 W9        29.93F
TEKAMAH        SUNNY     81  59  47 NW10      29.91S
WAYNE          SUNNY     80  58  47 W8        29.92F
$$

NEZ050>053-065>068-078-088>093-172300-
SOUTHEAST NEBRASKA

CITY           SKY/WX    TMP DP  RH WIND       PRES   REMARKS
LINCOLN        SUNNY     84  58  40 W9        29.95S
OMAHA EPPLEY   SUNNY     84  56  38 NW16      29.91S
BEATRICE       SUNNY     86  60  41 W8        29.96S
FALLS CITY     SUNNY     83  57  41 NW9       29.93F
NEBRASKA CITY  SUNNY     82  59  44 NW10      29.94S
PLATTSMOUTH    SUNNY     81  57  43 NW9       29.93S
$$

NEZ044-045-051>053-067-172300-
OMAHA AREA

CITY           SKY/WX    TMP DP  RH WIND       PRES   REMARKS
OMAHA EPPLEY   SUNNY     84  56  38 NW16      29.91S
BLAIR          LGT RAIN  80  60  50 W7        29.93S
FREMONT        SUNNY     81  61  49 W9        29.93F
MILLARD        SUNNY     83  60  44 W13G20    29.92F
OFFUTT AFB     SUNNY     84  56  37 NW14      29.91S
PLATTSMOUTH    SUNNY     81  57  43 NW9       29.93S
WAHOO          FAIR      81  62  52 W7        29.93F
$$




USA.gov is the U.S. government's official web portal to all federal, state and local government web resources and services.